Location: Saint-Maurice-d�Ard�che
(44.5216°N, 4.4002°E)
Time: 21:54:57
(UTC+00:00)

Cosmos 2184 Rocket - Pass Details

Date: 30 March 2020
Orbit: 958 x 1003 km, 82.9° (Epoch: 25 May)

Event Time Altitude Azimuth Distance (km) Brightness Sun altitude
Rises 19:47:33 0° 354° (N) 3,724 7.5 -17.9°
Reaches altitude 10° 19:50:08 10° 358° (N) 2,766 6.7 -18.3°
Maximum altitude 19:56:25 62° 79° (ENE) 1,103 4.0 -19.3°
Enters shadow 19:59:46 28° 150° (SSE) 1,741 4.9 -19.8°
